Regional Weather Roundup
Issued by NWS

Home | Current Version | Previous Version | Text Only | Print | Product List | Glossary Off
Versions: 1 2 3 4 5 6 7 8 9 10 11 12 13 14 15 16 17 18 19 20 21 22 23 24 25 26 27 28 29 30 31 32 33 34 35 36 37 38 39 40 41 42 43 44 45 46 47 48 49 50

000
ASUS45 KBOU 280907
RWRCO

WEATHER ROUNDUP FOR COLORADO
NATIONAL WEATHER SERVICE DENVER/BOULDER CO
300 AM MDT THU MAY 28 2015

NOTE: "FAIR" INDICATES FEW OR NO CLOUDS BELOW 12000 FEET WITH NO
SIGNIFICANT WEATHER AND/OR OBSTRUCTIONS TO VISIBILITY.

COZ001>005-013-030-031-281000-
...NORTHWEST COLORADO...

CITY           SKY/WX    TMP DP  RH WIND       PRES   REMARKS
CRAIG          CLOUDY    50  42  74 CALM      30.14F
HAYDEN         CLOUDY    46  39  76 E5        30.15F
MEEKER         MOCLDY    47  42  83 N3        30.15F
MOUNT WERNER   NOT AVBL
STEAMBOAT SPGS CLOUDY    45  42  91 CALM      30.17F
WALDEN         MOCLDY    41  36  81 SE10      30.20S
$$

COZ006>008-011-281000-
...WEST CENTRAL VALLEYS...

CITY           SKY/WX    TMP DP  RH WIND       PRES   REMARKS
GRAND JUNCTION PTCLDY    51  48  89 SE14      30.10F
MONTROSE       MOCLDY    50  46  86 SE9       30.19R
EAGLE          MOCLDY    46  45  93 NE5       30.21F
RIFLE          MOCLDY    49  46  90 SE7       30.16F
DELTA          MOCLDY    55  46  73 NE10      30.14S
NUCLA          MOCLDY    50  41  71 E8        30.17F
$$

COZ017>023-064>068-281000-
...SOUTHWEST COLORADO...

CITY           SKY/WX    TMP DP  RH WIND       PRES   REMARKS
DURANGO        PTCLDY    45  37  73 NE3       30.15S
CORTEZ         CLEAR     44  39  82 SE7       30.12S
PAGOSA SPRINGS PTCLDY    46  32  57 CALM      30.21S
TELLURIDE      CLOUDY    43  35  72 SE9       30.31F
WOLF CREEK PAS NOT AVBL
$$

COZ009-010-012-014-032>034-037-058>063-281000-
...CENTRAL COLORADO...

CITY           SKY/WX    TMP DP  RH WIND       PRES   REMARKS
ASPEN          CLOUDY    44  36  73 CALM      30.24F
BUENA VISTA    MOCLDY    43  36  77 NW3       30.22F
COPPER MTN     CLOUDY    37  28  70 W17       30.38F
BERTHOUD PASS  FAIR      30  23  74 W18G30    30.38F WCI  18
COTTONWOOD PAS MOCLDY    45  32  61 CALM      30.29F
GUNNISON       MOCLDY    37  34  87 SE3       30.30R
KREMMLING      CLOUDY    46  37  71 S5        30.24S
LEADVILLE      MOCLDY    33  29  85 NE7       30.29S WCI  27
MONARCH PASS   MOCLDY    34  28  80 SW22      30.50F WCI  22
SALIDA         MOCLDY    42  37  81 CALM      30.27F
SUNLIGHT       MOCLDY    36  36 100 CALM      30.37S
WILKERSON PASS MOCLDY    36  28  75 SW6       30.38S
$$

COZ069>075-281000-
...SAN LUIS VALLEY/SANGRE DE CRISTO MOUNTAINS...

CITY           SKY/WX    TMP DP  RH WIND       PRES   REMARKS
ALAMOSA        MOCLDY    40  35  83 W5        30.20S
LA VETA PASS   CLOUDY   N/A N/A N/A MISG      30.32F
SAGUACHE       PTCLDY    43  36  75 NW14G20   30.22F
$$

COZ035-036-038>040-281000-
...NORTHERN COLORADO FRONT RANGE...

CITY           SKY/WX    TMP DP  RH WIND       PRES   REMARKS
DENVER INTL AP CLOUDY    55  53  93 NW7       30.05S
DMNS CITY PARK   N/A     52  46  80 CALM      30.05S
AURORA         MOCLDY    53  44  71 W3        30.07S
FRONT RANGE AP CLEAR     54  50  87 MISG      30.06S
ERIE MUNI ARPT PTCLDY    53  51  92 N6        30.04F
BOULDER MUN AP PTCLDY    52  45  76 CALM      30.04F
CENTENNIAL     MOCLDY    51  42  71 CALM      30.06F
BROOMFIELD     PTCLDY    54  50  87 N8        30.07S
FORT COLLINS   MOCLDY    55  54  94 N3        30.07R
LONGMONT       CLEAR     53  50  90 NE6       30.06F
$$

COZ041-046-047-076>085-087-088-281000-
...PIKES PEAK/PALMER DIVIDE AND SOUTHERN FOOTHILLS...

CITY           SKY/WX    TMP DP  RH WIND       PRES   REMARKS
COLO. SPRINGS  PTCLDY    53  39  59 E3        30.10F
A. F. ACADEMY  PTCLDY    45  40  83 N7        30.10F
ELLICOTT       PTCLDY   N/A N/A N/A E6        30.08F
FALCON         PTCLDY    47  40  75 SE3       30.14R
FORT CARSON    PTCLDY    50  42  72 NE2       30.08S
LIMON          CLOUDY    51  51 100 S7        30.06S FOG
MONUMENT HILL  CLEAR     46  37  71 E9        30.13F
TRINIDAD       PTCLDY    49  43  80 W9        30.07F
$$

COZ042>045-048>051-090-091-281000-
...NORTHEAST COLORADO...

CITY           SKY/WX    TMP DP  RH WIND       PRES   REMARKS
GREELEY ARPT   PTCLDY    55  54  94 NE7       30.03F
AKRON          PTCLDY    54  52  93 SW9       30.01F
BURLINGTON     CLOUDY    56  54  93 S18       30.04R
WRAY           CLEAR     56  56 100 S8        30.01S
STERLING       PTCLDY    54  52  94 SE5       30.01F
HOLYOKE        PTCLDY    59  55  88 NW7       30.03R
FORT MORGAN    PTCLDY    55  51  89 NE3       30.04R
$$

COZ086-089-092>099-281000-
...SOUTHEAST COLORADO...

CITY           SKY/WX    TMP DP  RH WIND       PRES   REMARKS
PUEBLO         PTCLDY    52  50  93 NW3       30.02F
LA JUNTA       CLEAR     56  51  84 NW5       30.00S
LAMAR          PTCLDY    57  55  93 NE5       30.02R
SPRINGFIELD      N/A     57  57 100 S13       30.05S
$$


USA.gov is the U.S. government's official web portal to all federal, state and local government web resources and services.